User: anonymous   Login
Location: Hancock Field Station
(44.9202°N, 120.4259°W)
Time: 13:06:59
(UTC-07:00)
Language:

Cosmos 1707 - Orbit

View from above orbital plane
View from above orbital plane
View from above satellite
View from above satellite

Ground track
Ground track

The orbit data is extracted from the following two-line orbital elements,

1 16326U 85113A   16149.18288543  .00000408  00000-0  21564-4 0  9990
2 16326  82.5129 226.3506 0010831 182.1756 177.9429 15.12627476659138
Epoch (UTC): 28 May 2016 04:23:21
Eccentricity: 0.0010831
inclination: 82.5129°
perigee height: 521 km
apogee height: 535 km
right ascension of ascending node: 226.3506°
argument of perigee: 182.1756°
revolutions per day: 15.12627476
mean anomaly at epoch: 177.9429°
orbit number at epoch: 65913

The dashed part of the orbit path shows where the satellite is in the earth's shadow,  

DLR